Location: Breungeshain
(50.5000°N, 9.2000°E)
Time: 09:50:01
(UTC+00:00)

ISS - Pass Details

Date: 22 May 2017
Orbit: 402 x 409 km, 51.6° (Epoch: 24 May)

Event Time Altitude Azimuth Distance (km) Brightness Sun altitude
Rises 01:40:03 0° 283° (WNW) 2,331 -0.2 -12.7°
Reaches altitude 10° 01:42:08 10° 283° (WNW) 1,468 -1.2 -12.5°
Maximum altitude 01:45:26 89° 14° (NNE) 411 -3.9 -12.2°
Drops below altitude 10° 01:48:43 10° 104° (ESE) 1,460 -0.7 -11.9°
Sets 01:50:47 0° 105° (ESE) 2,317 0.3 -11.7°
